Weather History for Cecil Field, FL

Change the Weather History Date:

Monday, October 22, 2012

  Actual Average (KJAX) Record (KJAX)
Temperature  
Mean Temperature 66 °F 69 °F  
Max Temperature 77 °F 79 °F 92 °F (2006)
Min Temperature 55 °F 58 °F 39 °F (1976)
Degree Days  
Heating Degree Days 0 1  
Month to date heating degree days 10  
Since 1 July heating degree days 10  
Cooling Degree Days 1 5  
Month to date cooling degree days 161  
Year to date cooling degree days 2547  
Growing Degree Days 16 (Base 50)    
Moisture  
Dew Point 58 °F    
Average Humidity 89    
Maximum Humidity 100    
Minimum Humidity 54    
Precipitation  
Precipitation 0.00 in 0.09 in 5.26 in (1933)
Month to date precipitation 3.24  
Year to date precipitation 46.79  
Snow  
Snow 0.00 in 0.00 in 0.00 in (2002)
Month to date snowfall 0.0  
Since 1 July snowfall 0.0  
Since 1 September snowfall 0.0  
Snow Depth -    
Sea Level Pressure  
Sea Level Pressure 30.12 in    
Wind  
Wind Speed 2 mph (NE)    
Max Wind Speed 15 mph    
Max Gust Speed -    
Visibility 9 miles    
Events      
T = Trace of Precipitation, MM = Missing Value Source: NWS Daily Summary

Daily Weather History Graph

Daily Weather History Graph

Search for Another Location

Airport:

Trip Planner

Search our weather history database for the weather conditions in past years. The results will help you decide how hot, cold, wet, or windy it might be!

Date:

Astronomy

Oct. 22, 2012 Rise Set
Actual Time 7:34 AM EDT 6:48 PM EDT
Civil Twilight 7:10 AM EDT 7:13 PM EDT
Nautical Twilight 6:42 AM EDT 7:41 PM EDT
Astronomical Twilight 6:14 AM EDT 8:08 PM EDT
Moon 2:29 PM EDT (10/22) 12:49 AM EDT (10/22)
Length of Visible Light 12h 02m
Length of Day
11h 14m
First Quarter, 56% of the Moon is Illuminated
Oct 22
First Quarter
Oct 29
Full
Nov 6
Last Quarter
Nov 13
New
Nov 20
First Quarter

Hourly Weather History & Observations

Time (EDT) Temp. Dew Point Humidity Pressure Visibility Wind Dir Wind Speed Gust Speed Precip Events Conditions
12:15 AM 55.4 °F 55.4 °F 100% 30.11 in 10.0 mi Calm Calm - N/A   Clear
12:35 AM 55.4 °F 55.4 °F 100% 30.12 in 10.0 mi Calm Calm - N/A   Clear
12:55 AM 55.4 °F 55.4 °F 100% 30.11 in 10.0 mi Calm Calm - N/A   Clear
1:15 AM 55.4 °F 55.4 °F 100% 30.11 in 10.0 mi Calm Calm - N/A   Clear
1:55 AM 55.4 °F 55.4 °F 100% 30.10 in 9.0 mi Calm Calm - N/A   Clear
2:55 AM 55.4 °F 55.4 °F 100% 30.09 in 8.0 mi Calm Calm - N/A   Clear
3:15 AM 55.4 °F 55.4 °F 100% 30.09 in 9.0 mi Calm Calm - N/A   Clear
3:55 AM 55.4 °F 55.4 °F 100% 30.09 in 8.0 mi Calm Calm - N/A   Clear
4:15 AM 55.4 °F 55.4 °F 100% 30.09 in 6.0 mi Calm Calm - N/A   Clear
5:15 AM 55.4 °F 55.4 °F 100% 30.09 in 10.0 mi Calm Calm - N/A   Clear
5:35 AM 55.4 °F 55.4 °F 100% 30.10 in 9.0 mi Calm Calm - N/A   Clear
5:55 AM 55.4 °F 55.4 °F 100% 30.10 in 5.0 mi Calm Calm - N/A   Clear
6:15 AM 55.4 °F 55.4 °F 100% 30.10 in 5.0 mi Calm Calm - N/A   Clear
6:50 AM 55.4 °F 55.4 °F 100% 30.11 in 10.0 mi Calm Calm - N/A   Clear
7:50 AM 55.4 °F 55.4 °F 100% 30.14 in 10.0 mi Calm Calm - N/A   Clear
8:50 AM 64.4 °F 60.8 °F 88% 30.15 in 10.0 mi NNE 6.9 mph - N/A   Clear
10:50 AM 73.4 °F 64.4 °F 73% 30.17 in 10.0 mi NNE 13.8 mph - N/A   Clear
11:50 AM 77.0 °F 62.6 °F 61% 30.17 in 10.0 mi East 13.8 mph - N/A   Clear
12:50 PM 77.0 °F 62.6 °F 61% 30.15 in 10.0 mi ENE 11.5 mph - N/A   Clear
1:50 PM 77.0 °F 62.6 °F 61% 30.13 in 10.0 mi ENE 15.0 mph - N/A   Scattered Clouds
2:50 PM 75.2 °F 60.8 °F 61% 30.11 in 10.0 mi ENE 5.8 mph - N/A   Scattered Clouds
3:50 PM 77.0 °F 59.0 °F 54% 30.10 in 10.0 mi NE 15.0 mph - N/A   Scattered Clouds
4:50 PM 75.2 °F 59.0 °F 57% 30.10 in 10.0 mi NE 11.5 mph - N/A   Scattered Clouds
5:50 PM 73.4 °F 59.0 °F 61% 30.10 in 10.0 mi ENE 9.2 mph - N/A   Scattered Clouds
6:50 PM 68.0 °F 59.0 °F 73% 30.12 in 10.0 mi NE 4.6 mph - N/A   Partly Cloudy
7:50 PM 64.4 °F 59.0 °F 83% 30.13 in 10.0 mi NNE 4.6 mph - N/A   Clear
8:55 PM 59.0 °F 59.0 °F 100% 30.14 in 10.0 mi Calm Calm - N/A   Clear
9:15 PM 59.0 °F 57.2 °F 94% 30.14 in 10.0 mi Calm Calm - N/A   Clear
9:35 PM 57.2 °F 57.2 °F 100% 30.15 in 10.0 mi Calm Calm - N/A   Clear
9:55 PM 57.2 °F 57.2 °F 100% 30.15 in 10.0 mi Calm Calm - N/A   Clear
10:15 PM 57.2 °F 57.2 °F 100% 30.15 in 10.0 mi Calm Calm - N/A   Clear
10:35 PM 57.2 °F 55.4 °F 94% 30.16 in 10.0 mi Calm Calm - N/A   Clear
10:55 PM 57.2 °F 57.2 °F 100% 30.15 in 10.0 mi Calm Calm - N/A   Clear
11:15 PM 57.2 °F 57.2 °F 100% 30.15 in 10.0 mi Calm Calm - N/A   Clear
11:35 PM 57.2 °F 57.2 °F 100% 30.15 in 10.0 mi Calm Calm - N/A   Clear
11:55 PM 57.2 °F 57.2 °F 100% 30.15 in 10.0 mi Calm Calm - N/A   Clear